CAPE
990 1127 1028 617 414 136 16 0 0 0 0 0 0 0 0 0 0 0 0 0 3 270 136 0 0 1 7 4 0 5 4 0 0
831 969 1028 820 383 273 158 36 1 27 0 0 0 0 0 0 0 0 0 0 5 184 133 87 44 16 12 8 3 2 2 4 0
412 552 870 760 657 416 245 213 174 73 140 71 8 13 0 0 0 0 0 0 1 140 150 115 70 69 42 8 8 3 12 18 1
558 565 446 587 714 796 619 423 316 341 323 474 446 121 0 0 0 0 0 0 12 128 203 75 58 50 61 16 15 9 3 7 5
0 13 111 511 613 782 818 655 581 575 614 549 476 273 51 0 0 0 0 0 0 214 406 255 98 12 2 7 11 10 10 8 9
0 0 0 0 1 5 243 599 530 467 371 378 332 284 204 102 5 0 0 0 0 36 321 502 318 110 42 25 2 5 11 12 15
0 0 0 0 0 0 0 0 49 147 287 372 295 420 537 268 160 40 0 0 0 0 109 901 569 403 567 240 21 7 11 11 68
0 0 0 0 0 0 0 0 0 0 3 38 121 243 326 386 214 320 272 78 142 20 2 649 900 674 567 493 321 180 12 8 5
0 0 0 0 0 0 0 0 0 0 0 0 0 0 27 70 27 58 248 227 196 384 358 365 841 906 808 679 772 716 589 272 160
0 0 0 0 0 0 0 0 0 0 0 0 0 0 0 0 19 7 0 77 208 139 416 645 536 740 870 969 1054 931 896 640 366
0 0 0 0 0 0 0 0 0 0 0 0 0 0 0 0 0 3 0 7 17 114 239 568 758 665 768 1139 1216 1059 1021 1024 867
0 0 0 0 0 0 0 0 0 0 0 0 0 0 0 0 0 0 0 0 0 13 16 49 337 817 842 887 1216 1212 1088 1037 1013
0 0 0 0 0 0 0 0 0 0 0 0 0 0 0 0 0 0 0 0 0 0 0 15 54 276 931 983 749 1208 1088 1077 1099
0 0 0 0 0 0 0 0 0 0 0 0 0 0 0 0 0 0 0 0 0 0 0 1 37 149 376 650 841 1221 1021 935 979
0 0 0 0 0 0 0 0 0 0 0 0 0 0 0 0 0 0 0 0 0 0 0 0 0 2 138 434 622 653 447 342 649
0 0 0 0 0 0 0 0 0 0 0 0 0 0 0 0 0 0 0 0 0 0 9 32 40 78 80 225 448 591 537 649 606
0 0 0 0 0 0 0 0 0 0 0 0 0 0 0 0 0 0 0 0 2 8 19 51 68 60 3 196 159 377 618 686 504
0 0 0 0 0 0 0 0 0 0 0 0 0 0 0 0 0 0 0 0 0 13 29 54 53 55 71 151 263 199 174 464 703
0 0 0 0 0 0 0 0 0 0 0 0 0 0 0 0 0 0 0 0 0 4 19 50 32 26 53 98 160 385 294 204 415
0 0 0 0 0 0 0 0 0 0 0 0 0 0 0 0 0 0 0 0 0 1 18 18 25 50 12 108 285 331 360 374 552
CIN
-0 -0 -1 -3 -6 -72 -203 -0 -0 -0 -0 -0 -0 -0 -0 -0 -0 -0 -0 -0 -6 -51 -103 -0 -0 -0 -0 -0 -0 -1 -0 -0 -0
-0 -1 -1 -2 -5 -7 -30 -95 -51 -113 -12 -0 -0 -0 -0 -0 -0 -0 -0 -0 -5 -48 -70 -113 -0 -0 -0 -0 -0 -0 -0 -0 -0
-13 -4 -0 -2 -2 -3 -4 -1 -5 -26 -3 -43 -49 -48 -0 -0 -0 -0 -0 -0 -3 -42 -58 -87 -0 -0 -0 -0 -0 -0 -1 -1 -0
-2 -2 -5 -2 -0 -1 -2 -1 -0 -0 -0 -0 -0 -21 -0 -0 -0 -0 -0 -0 -45 -43 -27 -77 -70 -0 -0 -0 -0 -0 -0 -2 -0
-0 -167 -49 -10 -11 -3 -1 -1 -1 -0 -1 -2 -3 -6 -91 -12 -0 -0 -0 -0 -0 -6 -0 -6 -53 -2 -0 -0 -0 -0 -0 -0 -0
-0 -0 -0 -0 -0 -66 -71 -2 -3 -6 -5 -4 -8 -10 -19 -97 -210 -0 -0 -0 -0 -103 -4 -0 -0 -27 -76 -16 -0 -0 -0 -0 -0
-0 -0 -0 -0 -0 -0 -0 -0 -260 -113 -36 -7 -12 -2 -0 -15 -31 -118 -22 -8 -95 -0 -18 -0 -0 -0 -0 -2 -37 -0 -0 -0 -69
-0 -0 -0 -0 -0 -0 -0 -0 -0 -0 -42 -265 -154 -49 -9 -1 -35 -1 -11 -73 -16 -99 -169 -0 -0 -0 -0 -0 -0 -3 -0 -0 -0
-0 -0 -0 -0 -0 -0 -0 -0 -0 -0 -0 -0 -0 -0 -128 -130 -181 -75 -4 -7 -11 -0 -0 -0 -0 -0 -0 -0 -0 -0 -0 -0 -12
-0 -0 -0 -0 -0 -0 -0 -0 -0 -0 -0 -0 -0 -0 -0 -0 -0 -0 -3 -76 -4 -16 -0 -0 -0 -0 -0 -0 -0 -0 -0 -0 -0
-0 -0 -0 -0 -0 -0 -0 -0 -0 -0 -0 -0 -0 -0 -0 -0 -0 -0 -0 -11 -88 -25 -2 -0 -0 -0 -0 -0 -0 -0 -0 -0 -0
-0 -0 -0 -0 -0 -0 -0 -0 -0 -0 -0 -0 -0 -0 -0 -0 -0 -0 -0 -0 -2 -31 -6 -3 -13 -0 -0 -0 -0 -0 -0 -0 -0
-0 -0 -0 -0 -0 -0 -0 -0 -0 -0 -0 -0 -0 -0 -0 -0 -0 -0 -0 -0 -0 -0 -0 -34 -14 -16 -0 -0 -0 -0 -0 -0 -0
-0 -0 -0 -0 -0 -0 -0 -0 -0 -0 -0 -0 -0 -0 -0 -0 -0 -0 -0 -0 -0 -0 -0 -11 -58 -22 -1 -0 -0 -0 -0 -0 -0
-0 -0 -0 -0 -0 -0 -0 -0 -0 -0 -0 -0 -0 -0 -0 -0 -0 -0 -0 -0 -0 -0 -0 -0 -0 -9 -58 -3 -0 -0 -0 -80 -0
-0 -0 -0 -0 -0 -0 -0 -0 -0 -0 -0 -0 -0 -0 -0 -0 -0 -0 -0 -0 -0 -0 -77 -49 -21 -2 -24 -33 -15 -5 -2 -0 -0
-0 -0 -0 -0 -0 -0 -0 -0 -0 -0 -0 -0 -0 -0 -0 -0 -0 -0 -0 -0 -59 -41 -77 -46 -51 -24 -2 -22 -60 -8 -0 -0 -0
-0 -0 -0 -0 -0 -0 -0 -0 -0 -0 -0 -0 -0 -0 -0 -0 -0 -0 -0 -0 -0 -65 -98 -54 -7 -18 -29 -7 -29 -32 -53 -14 -0
-0 -0 -0 -0 -0 -0 -0 -0 -0 -0 -0 -0 -0 -0 -0 -0 -0 -0 -0 -0 -0 -79 -96 -92 -93 -8 -8 -11 -21 -16 -16 -39 -6
-0 -0 -0 -0 -0 -0 -0 -0 -0 -0 -0 -0 -0 -0 -0 -0 -0 -0 -0 -0 -0 -28 -86 -92 -122 -70 -62 -10 -41 -21 -12 -19 -0
Wind_Speed
15 14 19 22 22 22 nan nan nan nan nan nan nan nan nan nan nan nan nan nan nan 23 28 nan nan nan nan nan nan nan nan nan nan
19 19 21 23 23 22 22 nan nan nan nan nan nan nan nan nan nan nan nan nan nan 20 26 nan nan nan nan nan nan nan nan nan nan
19 19 19 20 22 21 20 19 19 nan 20 nan nan nan nan nan nan nan nan nan nan 18 23 25 nan nan nan nan nan nan nan nan nan
15 15 13 12 10 12 12 13 12 12 12 14 15 16 nan nan nan nan nan nan nan 19 21 nan nan nan nan nan nan nan nan nan nan
nan nan 14 12 11 10 11 12 12 13 14 15 16 17 nan nan nan nan nan nan nan 17 16 24 nan nan nan nan nan nan nan nan nan
nan nan nan nan nan nan 20 19 18 15 19 19 21 23 29 28 nan nan nan nan nan nan 18 19 23 24 nan nan nan nan nan nan nan
nan nan nan nan nan nan nan nan nan 29 29 31 28 32 32 34 34 nan nan nan nan nan 19 20 21 22 24 23 nan nan nan nan nan
nan nan nan nan nan nan nan nan nan nan nan nan 36 36 37 39 39 37 31 nan 26 nan nan 25 25 23 23 23 22 22 nan nan nan
nan nan nan nan nan nan nan nan nan nan nan nan nan nan nan nan nan nan 37 33 30 28 28 26 27 28 25 23 24 24 23 22 18
nan nan nan nan nan nan nan nan nan nan nan nan nan nan nan nan nan nan nan nan 35 33 32 29 25 26 28 26 25 25 26 24 23
nan nan nan nan nan nan nan nan nan nan nan nan nan nan nan nan nan nan nan nan nan 33 32 32 31 27 24 25 26 26 27 27 25
nan nan nan nan nan nan nan nan nan nan nan nan nan nan nan nan nan nan nan nan nan nan nan nan 31 28 28 26 27 27 27 27 28
nan nan nan nan nan nan nan nan nan nan nan nan nan nan nan nan nan nan nan nan nan nan nan nan nan 34 31 31 27 27 29 30 29
nan nan nan nan nan nan nan nan nan nan nan nan nan nan nan nan nan nan nan nan nan nan nan nan nan 38 33 33 31 25 28 39 32
nan nan nan nan nan nan nan nan nan nan nan nan nan nan nan nan nan nan nan nan nan nan nan nan nan nan 41 36 33 27 21 24 31
nan nan nan nan nan nan nan nan nan nan nan nan nan nan nan nan nan nan nan nan nan nan nan nan nan nan nan 41 38 33 30 21 30
nan nan nan nan nan nan nan nan nan nan nan nan nan nan nan nan nan nan nan nan nan nan nan nan nan nan nan 50 47 42 40 41 29
nan nan nan nan nan nan nan nan nan nan nan nan nan nan nan nan nan nan nan nan nan nan nan nan nan nan nan 45 46 53 52 44 41
nan nan nan nan nan nan nan nan nan nan nan nan nan nan nan nan nan nan nan nan nan nan nan nan nan nan nan nan 37 40 52 50 54
nan nan nan nan nan nan nan nan nan nan nan nan nan nan nan nan nan nan nan nan nan nan nan nan nan nan nan 39 41 36 41 50 53
Wind_Direction
288 288 311 312 312 313 nan nan nan nan nan nan nan nan nan nan nan nan nan nan nan 291 294 nan nan nan nan nan nan nan nan nan nan
285 280 297 306 306 306 307 nan nan nan nan nan nan nan nan nan nan nan nan nan nan 300 297 nan nan nan nan nan nan nan nan nan nan
288 285 287 299 309 307 305 306 306 nan 308 nan nan nan nan nan nan nan nan nan nan 318 317 313 nan nan nan nan nan nan nan nan nan
286 284 287 292 307 318 326 326 329 332 331 325 316 307 nan nan nan nan nan nan nan 312 314 nan nan nan nan nan nan nan nan nan nan
nan nan 272 280 277 296 315 325 330 330 324 319 315 308 nan nan nan nan nan nan nan 305 299 308 nan nan nan nan nan nan nan nan nan
nan nan nan nan nan nan 263 265 270 292 302 300 297 293 289 291 nan nan nan nan nan nan 299 302 305 304 nan nan nan nan nan nan nan
nan nan nan nan nan nan nan nan nan 275 288 289 289 289 289 287 285 nan nan nan nan nan 296 290 301 304 299 298 nan nan nan nan nan
nan nan nan nan nan nan nan nan nan nan nan nan 285 286 286 285 284 286 292 nan 289 nan nan 292 295 299 300 298 297 296 nan nan nan
nan nan nan nan nan nan nan nan nan nan nan nan nan nan nan nan nan nan 288 286 283 284 286 285 289 291 297 300 298 293 292 291 288
nan nan nan nan nan nan nan nan nan nan nan nan nan nan nan nan nan nan nan nan 283 280 280 279 280 285 293 292 289 291 293 291 285
nan nan nan nan nan nan nan nan nan nan nan nan nan nan nan nan nan nan nan nan nan 277 276 274 274 278 279 286 286 285 289 291 289
nan nan nan nan nan nan nan nan nan nan nan nan nan nan nan nan nan nan nan nan nan nan nan nan 267 268 266 272 279 280 284 284 287
nan nan nan nan nan nan nan nan nan nan nan nan nan nan nan nan nan nan nan nan nan nan nan nan nan 267 266 261 270 272 280 282 282
nan nan nan nan nan nan nan nan nan nan nan nan nan nan nan nan nan nan nan nan nan nan nan nan nan 271 267 264 263 266 271 271 271
nan nan nan nan nan nan nan nan nan nan nan nan nan nan nan nan nan nan nan nan nan nan nan nan nan nan 268 260 258 264 255 191 261
nan nan nan nan nan nan nan nan nan nan nan nan nan nan nan nan nan nan nan nan nan nan nan nan nan nan nan 255 250 248 240 214 230
nan nan nan nan nan nan nan nan nan nan nan nan nan nan nan nan nan nan nan nan nan nan nan nan nan nan nan 253 244 239 241 256 262
nan nan nan nan nan nan nan nan nan nan nan nan nan nan nan nan nan nan nan nan nan nan nan nan nan nan nan 253 245 235 230 231 236
nan nan nan nan nan nan nan nan nan nan nan nan nan nan nan nan nan nan nan nan nan nan nan nan nan nan nan nan 242 240 234 225 229
nan nan nan nan nan nan nan nan nan nan nan nan nan nan nan nan nan nan nan nan nan nan nan nan nan nan nan 243 233 232 232 233 231